Location: ?
(35.4064°N, 139.3593°E)
Time: 03:21:33
(UTC+00:00)

Ariane Rocket - Pass Details

Date: 18 April 2024
Orbit: 758 x 766 km, 98.5° (Epoch: 23 May)

Event Time Altitude Azimuth Distance (km) Brightness Sun altitude
Exits shadow 12:36:04 34° 322° (NW) 1,242 4.5 -34.8°
Drops below altitude 10° 12:39:00 10° 338° (NNW) 2,292 6.2 -35.2°
Sets 12:41:21 0° 343° (NNW) 3,222 7.1 -35.5°
